Terminal Aerodrome Forecast
Issued by NWS Chicago, IL

Home | Current Version | Previous Version | Graphics & Text | Print | Product List | Glossary On
Versions: 1 2 3 4 5 6 7 8 9 10 11 12 13 14 15 16 17 18 19 20 21 22 23 24 25 26 27 28 29 30 31 32 33
000
FTUS43 KLOT 080200 AAA
TAFRFD
TAF AMD
KRFD 080206Z 0802/0824 18006KT P6SM SCT120 BKN250
     FM080700 26008KT P6SM VCTS BKN050CB BKN100
     FM081000 28010KT P6SM SCT050
     FM081500 30014G22KT P6SM BKN050=

USA.gov is the U.S. government's official web portal to all federal, state and local government web resources and services.